Theta_e
315 317 317 319 320 319 319 318 317 316 316 315 315 315 315 315 315 315 315 314 313 313 313 313 314 315 310 299 301 315 333 332 322 315 307 304 303 303 300 301 300 299 301 302 302 313 313
312 313 315 317 318 320 319 318 317 316 316 315 315 315 315 315 315 315 314 314 313 312 312 313 314 315 307 293 301 314 322 317 316 310 308 305 302 306 303 301 298 301 301 301 305 313 314
311 312 312 313 314 317 319 317 317 316 315 315 315 315 315 315 315 313 313 313 312 312 312 313 313 314 307 298 308 307 310 311 314 311 305 307 306 304 303 301 303 301 297 299 306 310 310
308 310 312 312 312 313 317 317 316 316 315 315 315 315 314 314 313 312 312 312 312 311 312 312 316 310 298 309 308 309 303 303 310 312 309 307 308 305 302 303 301 296 296 292 300 306 307
307 309 309 310 311 310 312 317 316 316 315 315 315 314 314 313 312 312 311 311 311 312 312 313 306 305 295 311 305 310 307 305 305 308 308 312 306 301 300 295 293 293 289 291 293 306 305
305 307 309 308 309 310 311 314 316 315 314 314 314 314 313 312 312 311 310 310 309 311 312 315 314 299 301 298 305 306 306 306 304 304 303 302 299 295 293 292 287 289 289 291 290 300 307
305 307 307 308 307 309 310 312 316 315 314 314 314 314 313 312 312 310 305 300 305 306 308 297 295 300 303 307 307 304 304 303 302 302 295 298 294 292 294 295 296 295 292 291 295 303 300
304 305 307 308 308 308 309 311 312 315 314 314 313 313 312 312 311 310 304 296 309 308 301 309 306 304 307 307 303 306 306 299 298 294 297 295 293 297 299 299 298 296 294 294 300 303 300
305 304 306 307 307 308 309 310 311 315 314 313 313 312 312 311 310 304 297 303 310 308 298 304 309 308 309 308 303 302 304 302 298 295 296 293 297 302 300 298 297 297 294 295 296 300 301
305 305 304 306 307 307 309 307 310 312 313 313 312 311 310 309 301 300 303 310 313 313 291 297 304 307 310 307 300 304 304 302 299 297 297 296 300 300 297 297 298 293 299 300 298 296 291
305 305 304 305 306 306 307 307 308 309 314 312 312 311 310 309 299 298 308 308 313 316 279 298 306 313 307 300 299 300 304 302 297 298 298 296 298 297 296 298 299 296 303 301 299 293 293
305 305 304 305 306 305 307 307 308 308 313 312 311 310 309 304 303 303 307 309 313 294 286 301 302 300 299 300 299 300 301 303 302 298 297 297 299 298 298 299 299 300 296 293 291 289 286
305 305 304 305 305 305 305 307 308 308 312 311 310 309 306 306 299 304 307 310 292 285 298 294 295 297 295 295 297 297 297 296 293 291 290 294 296 297 300 294 297 294 290 284 284 285 284
305 305 304 304 305 305 305 306 307 308 311 310 309 307 304 305 303 304 306 302 284 290 299 298 296 296 293 295 295 297 296 293 295 294 290 289 290 295 298 297 294 293 291 285 281 283 287
305 304 304 304 304 305 304 306 307 307 310 309 306 298 298 301 304 302 301 291 290 298 300 295 294 291 290 294 296 296 294 294 296 297 291 292 292 297 299 299 297 294 291 294 291 292 287
304 304 304 304 304 304 304 305 306 307 310 307 296 296 301 307 304 304 297 291 296 304 301 296 290 292 288 292 293 293 293 296 297 298 299 297 290 297 299 301 300 296 297 290 290 286 283
304 304 304 304 304 304 303 305 305 307 309 306 295 294 304 307 308 299 288 292 300 305 303 299 294 292 293 294 294 293 294 298 299 300 299 298 293 294 297 294 293 294 292 293 292 292 286
303 304 304 304 304 304 303 304 305 306 307 300 293 293 307 309 292 292 289 297 299 300 303 302 301 297 296 296 296 296 296 297 300 301 297 299 295 290 292 298 297 294 291 292 286 286 289
303 303 303 303 304 303 303 303 304 308 306 296 291 302 310 303 282 288 292 294 295 296 299 299 300 302 300 298 295 298 298 301 303 301 298 298 293 288 291 295 296 293 293 292 292 292 288
303 303 303 303 303 303 303 303 304 308 306 298 296 297 300 303 295 290 288 290 289 298 298 301 299 301 299 298 300 297 298 301 302 301 303 301 294 291 288 291 293 291 293 294 291 287 288
303 303 303 303 303 303 303 304 304 307 306 296 295 298 299 291 294 295 291 291 291 293 299 300 298 299 298 295 296 296 298 298 301 302 301 297 291 292 291 294 294 293 293 293 292 293 288
303 303 303 303 303 303 303 303 304 306 306 295 294 299 293 290 295 295 293 291 292 294 298 297 297 301 299 296 298 295 297 296 297 300 297 298 290 291 290 293 293 291 293 293 293 294 293
302 302 302 303 303 302 302 303 304 306 305 293 300 302 301 292 290 293 290 293 294 298 304 305 302 300 299 301 301 301 299 300 300 298 297 295 292 289 286 292 292 287 291 292 292 294 294
302 302 302 302 302 303 302 302 303 306 304 298 304 306 303 291 289 292 295 296 295 298 301 305 303 300 303 306 305 304 302 300 299 298 300 295 293 290 286 288 279 292 297 297 293 294 294
302 302 302 302 302 302 302 302 304 305 306 300 305 302 302 294 289 294 297 296 302 302 301 302 304 305 306 303 297 294 293 296 297 297 299 298 293 289 283 283 289 291 294 294 292 289 295
302 302 301 302 301 301 301 302 303 306 306 303 302 304 299 299 292 305 296 301 297 296 298 301 305 306 301 296 293 286 284 290 290 292 296 298 296 291 282 283 282 291 296 298 297 286 296
301 301 302 302 301 301 301 302 302 306 306 304 303 305 300 302 301 304 296 299 301 298 296 298 298 297 298 293 290 287 288 294 288 288 288 290 291 287 284 283 289 296 298 299 287 288 297
301 301 301 301 301 301 301 302 305 305 306 304 302 308 303 303 301 305 306 300 301 299 295 298 296 296 293 290 290 288 289 289 290 292 290 289 288 287 288 284 283 298 298 293 294 295 297
301 301 301 301 301 300 301 301 305 305 305 307 301 312 311 307 301 306 308 309 308 305 302 299 297 295 295 293 292 293 291 290 289 286 297 288 293 292 291 290 297 300 298 299 298 297 295
Wind_Speed
17 19 15 16 14 10 11 10 9 9 9 10 11 11 13 14 15 13 13 14 14 15 15 16 16 16 7 3 12 1 10 9 6 4 7 5 5 6 5 4 4 5 6 7 5 3 9
16 16 19 17 18 13 11 10 9 9 9 10 11 11 12 12 14 13 13 14 14 15 14 13 14 13 3 5 5 2 6 6 5 4 6 7 7 8 4 3 4 4 5 7 5 3 3
17 16 17 17 19 19 12 10 10 9 10 10 11 12 11 11 13 14 14 15 15 16 14 12 11 4 1 19 2 5 5 2 7 5 5 5 5 2 3 4 3 3 4 4 3 3 5
17 16 17 15 17 22 16 11 10 10 10 10 11 11 11 11 12 14 15 16 17 18 13 10 5 3 11 5 2 9 3 5 8 9 6 1 6 4 3 2 6 1 5 4 2 2 4
15 18 17 16 15 19 22 15 11 10 11 10 10 10 11 11 12 14 16 19 20 17 8 3 1 3 13 7 3 10 7 6 2 4 4 1 3 4 3 4 5 8 2 2 1 13 3
16 17 15 16 13 15 21 23 13 11 10 10 10 11 11 11 12 14 17 21 11 3 3 5 5 3 7 4 4 4 7 6 6 2 2 4 4 2 3 5 5 3 0 2 3 8 20
17 17 18 16 12 15 17 22 16 12 10 10 10 10 11 11 12 12 10 6 1 0 3 10 7 5 6 8 4 4 6 6 2 6 2 1 3 8 7 6 5 2 3 3 2 7 13
17 16 18 17 14 15 14 21 22 12 11 9 10 10 10 11 12 10 3 3 1 2 8 15 15 9 9 3 6 5 5 7 5 5 2 5 7 6 5 5 5 4 4 4 9 13 14
16 16 17 16 16 14 12 18 16 14 11 9 10 9 10 12 13 4 4 7 6 2 3 8 7 7 6 9 7 7 6 5 6 6 5 6 7 6 4 5 5 5 5 10 9 18 17
16 14 16 17 16 14 13 14 18 20 11 10 9 8 9 12 3 3 5 5 6 3 3 8 6 9 6 6 6 9 7 6 2 10 7 5 6 7 4 7 8 5 6 14 21 10 6
16 14 15 17 16 14 15 11 18 23 12 9 9 7 8 1 6 4 4 7 7 4 1 4 5 3 7 8 3 4 5 5 7 5 7 8 3 3 3 9 8 10 17 18 14 6 8
16 14 16 16 17 14 13 12 13 18 13 9 9 7 6 1 2 8 10 8 3 5 9 4 7 7 7 3 4 2 4 2 5 4 1 7 2 3 7 3 4 5 7 5 5 4 5
16 15 15 16 16 15 12 13 14 16 15 9 8 7 1 0 6 6 8 3 5 4 4 5 6 6 5 5 4 2 7 6 6 5 2 4 6 4 5 2 4 6 7 3 4 5 2
17 14 14 16 16 14 12 11 13 14 15 9 7 6 6 6 3 4 4 4 4 6 6 2 4 8 7 5 5 6 6 5 1 5 3 4 5 4 4 6 7 2 6 7 5 4 3
18 15 15 15 16 15 12 9 13 13 13 7 2 2 4 6 10 4 1 2 8 6 4 7 5 5 4 5 5 5 4 8 7 7 5 4 4 2 1 3 5 2 1 4 8 3 4
20 17 16 15 15 15 12 9 12 14 11 7 1 3 5 3 12 3 3 6 5 5 5 3 6 5 8 6 4 5 6 5 4 6 4 5 3 3 3 6 6 5 3 2 4 5 1
20 18 16 15 14 14 11 13 12 18 11 10 3 3 5 8 5 3 5 7 6 10 6 5 4 6 6 7 6 4 5 2 2 3 5 4 5 4 5 4 3 4 3 6 6 4 6
20 18 16 14 14 14 12 9 13 20 14 7 3 4 1 6 4 3 4 6 4 6 4 4 2 4 6 7 5 4 5 2 1 2 4 1 6 4 2 4 4 5 3 4 6 2 3
21 18 16 15 14 15 12 9 14 11 13 5 3 4 1 3 5 4 4 5 3 4 4 4 2 3 3 6 8 4 3 2 1 3 6 4 3 4 4 7 6 7 4 4 6 4 2
20 18 16 15 15 14 11 9 15 14 12 5 1 4 2 2 2 3 5 5 6 5 7 6 4 3 5 4 6 6 4 3 2 4 6 9 3 7 8 7 5 5 5 4 5 4 5
20 18 17 15 15 14 12 12 15 11 14 5 2 3 3 7 9 4 4 6 6 4 5 3 3 5 7 6 4 5 3 4 5 2 4 6 5 5 7 7 7 4 4 4 5 4 2
20 18 16 13 15 14 13 6 12 11 16 3 3 3 3 2 7 11 5 7 9 4 2 3 3 1 7 8 8 8 8 4 4 5 4 3 2 4 7 4 10 8 5 10 7 8 10
18 18 15 13 15 15 12 10 12 11 11 3 3 4 3 3 6 7 6 6 9 6 3 1 5 6 5 2 6 7 5 6 7 6 3 4 6 4 3 0 4 5 3 3 4 3 9
19 16 14 14 17 13 11 12 12 16 13 3 2 3 2 4 8 9 6 6 5 7 5 2 3 6 2 11 11 9 12 10 12 8 3 6 5 4 4 3 2 3 3 9 12 5 8
17 14 14 14 14 11 9 7 16 17 19 3 1 2 3 4 6 6 7 6 4 4 3 2 3 3 3 5 8 8 8 8 6 7 8 6 6 5 6 3 2 4 3 7 6 1 4
14 12 12 14 12 10 9 11 11 18 20 2 2 1 3 3 4 3 5 5 5 4 3 2 2 2 6 5 6 5 3 4 1 3 4 8 8 7 3 6 7 7 6 10 7 1 8
12 12 13 15 13 8 6 14 17 20 16 5 3 7 3 3 4 2 4 6 4 4 5 1 1 3 4 4 5 4 1 5 4 6 2 4 4 5 3 3 5 4 9 4 6 7 15
12 13 13 11 12 8 11 14 12 17 17 8 2 6 4 2 6 2 3 2 2 2 7 4 5 5 5 6 5 3 4 4 4 4 5 5 6 3 3 5 3 3 3 7 5 5 15
12 14 12 10 8 5 11 14 13 16 15 10 3 3 8 5 5 2 4 2 3 2 8 3 6 3 5 6 3 4 3 3 4 2 3 1 6 7 3 4 3 4 2 5 4 13 7
Wind_Direction
338 351 331 334 277 252 262 271 277 285 294 291 295 296 304 305 304 307 306 308 311 317 321 320 322 327 341 344 253 87 93 105 111 131 155 158 158 165 194 188 182 210 259 257 297 111 130
311 333 349 343 334 266 257 263 271 278 285 284 288 298 299 302 302 306 304 303 304 308 312 316 316 322 307 269 254 342 120 135 129 139 163 164 199 205 185 222 171 217 268 285 213 144 98
326 310 320 337 345 328 258 253 260 273 282 287 293 292 294 302 302 304 303 300 301 302 307 311 305 286 240 239 238 16 332 234 164 172 194 203 196 166 162 293 232 251 305 345 34 144 74
307 320 303 309 335 338 308 250 254 266 276 281 290 293 297 302 301 302 303 301 296 296 299 296 280 232 248 253 296 286 175 255 214 197 204 226 179 194 194 272 3 338 49 25 24 11 341
296 304 311 305 314 321 326 271 246 258 271 277 285 291 297 301 300 306 305 298 293 290 274 232 222 207 266 304 263 246 165 218 163 169 201 230 169 208 76 94 1 10 227 276 159 360 136
295 294 302 304 316 314 312 323 246 247 262 273 284 289 292 298 307 309 311 298 285 289 142 182 257 340 269 265 287 238 186 160 224 153 74 149 70 128 54 82 235 239 326 304 12 18 69
290 296 296 298 308 302 310 312 294 242 252 265 274 283 294 301 307 316 344 355 329 39 225 199 201 248 277 307 288 235 165 126 107 66 163 19 90 220 221 195 172 207 218 69 103 160 59
282 288 293 295 297 295 303 305 327 239 247 260 276 288 299 305 304 309 321 256 223 104 296 229 235 251 272 86 302 292 128 129 127 174 94 20 243 225 191 181 205 215 261 102 76 85 92
272 279 288 291 292 296 294 309 309 272 245 256 271 289 303 308 308 301 222 242 314 332 264 284 197 216 220 146 218 255 142 128 127 162 163 178 221 118 184 257 240 242 200 179 121 88 117
265 271 280 284 281 288 291 309 323 311 240 250 268 287 305 320 315 301 246 286 320 202 21 262 209 255 170 199 257 211 182 137 113 187 159 228 249 235 235 243 168 261 142 131 145 141 165
257 262 271 281 276 283 287 307 298 324 243 242 263 284 304 62 296 263 325 327 300 58 349 198 164 181 152 166 263 222 163 55 166 183 123 236 199 145 237 241 149 224 147 156 170 128 110
248 255 264 271 268 281 282 278 303 308 253 237 259 279 323 39 216 258 319 316 59 59 250 218 145 165 125 208 303 95 149 121 158 153 207 232 264 184 224 309 180 116 110 54 53 72 53
238 246 257 268 266 269 284 283 308 314 263 234 254 272 252 245 238 330 318 57 71 178 294 197 180 136 131 154 239 148 146 158 146 123 269 323 256 245 156 176 12 74 65 360 1 31 194
233 237 247 261 267 260 273 280 297 293 262 230 258 292 243 209 250 341 310 76 189 219 228 147 129 108 155 151 244 183 120 152 111 101 122 174 327 184 185 176 174 89 137 154 203 182 209
229 228 241 254 255 251 257 261 291 287 257 219 348 298 268 238 218 121 151 158 212 215 251 140 61 102 194 216 148 124 137 177 191 172 169 165 290 334 222 112 116 168 46 160 108 56 85
224 226 234 245 256 245 261 291 310 282 225 150 87 317 245 199 145 140 103 239 238 228 323 189 146 172 165 198 137 108 162 191 188 185 148 199 89 358 22 61 27 116 142 61 25 136 152
222 222 229 239 249 234 246 256 322 306 180 135 80 300 260 142 140 74 182 235 268 269 240 207 194 157 166 158 138 131 201 31 227 99 150 133 107 307 40 21 175 17 27 54 106 107 148
217 217 224 233 237 234 254 293 312 302 147 96 128 235 211 159 121 189 193 205 269 280 289 260 183 135 157 159 83 112 137 164 332 157 104 74 117 83 108 351 34 91 95 108 113 196 61
211 212 219 226 234 232 237 242 299 250 148 126 199 251 24 82 159 219 266 248 267 310 305 319 269 181 145 140 99 96 114 19 78 97 159 178 39 91 360 353 2 59 342 99 99 87 171
204 206 218 216 233 235 246 242 267 193 158 102 235 196 149 225 177 189 185 214 205 246 254 258 255 94 99 78 25 149 123 25 61 91 77 83 90 147 176 194 137 85 11 29 100 104 163
202 206 212 217 223 219 216 244 247 252 156 103 224 246 169 187 230 236 222 195 176 243 225 222 285 137 148 115 85 109 121 109 29 108 65 94 89 83 36 81 84 91 94 48 80 122 120
201 206 213 215 221 216 227 250 257 278 150 123 220 237 2 209 158 193 214 218 176 195 271 277 175 58 107 145 164 175 131 118 167 28 66 30 110 60 41 55 94 92 81 85 62 102 73
196 212 209 215 219 216 217 230 261 251 147 145 210 261 255 226 157 165 213 197 205 154 207 248 174 97 73 155 125 114 96 102 134 129 109 93 131 101 130 297 122 39 187 102 99 73 134
196 207 212 220 212 204 220 231 261 229 175 152 259 285 231 256 191 192 188 213 183 190 158 5 28 100 53 119 88 56 60 71 64 32 103 115 90 75 131 42 43 273 40 119 100 51 102
192 200 211 218 206 208 218 270 243 232 188 142 101 341 321 285 198 188 228 188 88 83 62 95 18 58 110 73 74 58 358 36 26 31 36 82 105 78 116 97 285 57 174 152 134 353 127
186 195 213 207 190 214 222 286 264 222 197 157 139 119 305 289 247 322 197 178 149 118 36 22 41 40 71 74 79 105 160 167 127 68 46 66 68 105 99 119 198 230 178 133 106 343 163
188 197 210 190 199 214 241 260 287 203 179 151 247 165 259 260 270 269 203 172 129 98 112 344 90 75 55 67 75 116 156 173 139 141 127 35 28 116 106 124 290 248 150 156 85 238 153
186 194 184 192 203 222 252 252 220 175 167 162 218 190 236 304 281 271 296 169 110 122 135 214 67 359 49 71 113 179 117 199 92 149 163 148 126 145 91 85 277 100 134 150 181 26 134
192 178 185 204 202 249 253 282 208 162 175 172 245 221 198 239 251 294 265 286 276 187 125 39 140 125 167 94 76 118 93 84 141 153 42 95 172 152 144 200 324 343 78 93 117 126 122